OCN5Q LCLK-EDDF

Flight info

Callsign OCN5Q
Flight time 3h 39m
Altitude 34000
Route PHA DCT GENOS DCT PEDER DCT EVENO UM601 EXELA UN127 RIKSO DCT FSK/N0443F360 UL608 DISOR DCT LONTA UL608 DOLEV DCT PETOV DCT SIMBA DCT AKINI T161 DEBHI DEBHI1C
Aircraft A320/M-SDE2E3FGIJ1LORWXYZ/HB1

Departure

Time 2026-04-13 13:57
Airport Larnaca International Airport (LCLK)

Arrival

Time 2026-04-13 17:36
Airport Frankfurt Main Airport (EDDF)
Time Latitude Longitude Altitude Speed Heading
2026-04-13 13:05 34.86916 33.60904 21 ft 0 kts 44°
2026-04-13 13:44 34.86914 33.60901 20 ft 2 kts 44°
2026-04-13 13:44 34.86901 33.60886 20 ft 3 kts 45°
2026-04-13 13:44 34.86887 33.60869 21 ft 3 kts 41°
2026-04-13 13:45 34.86871 33.60854 22 ft 3 kts 30°
2026-04-13 13:45 34.86856 33.60841 22 ft 3 kts 62°
2026-04-13 13:45 34.86853 33.60825 23 ft 3 kts 126°
2026-04-13 13:45 34.86860 33.60815 24 ft 2 kts 135°
2026-04-13 13:46 34.86870 33.60804 24 ft 1 kts 135°
2026-04-13 13:46 34.86870 33.60803 24 ft 0 kts 135°
2026-04-13 13:48 34.86866 33.60808 24 ft 2 kts 135°
2026-04-13 13:49 34.86843 33.60835 22 ft 7 kts 135°
2026-04-13 13:49 34.86803 33.60884 20 ft 9 kts 135°
2026-04-13 13:49 34.86755 33.60941 20 ft 11 kts 135°
2026-04-13 13:49 34.86702 33.61008 20 ft 11 kts 124°
2026-04-13 13:50 34.86719 33.61092 20 ft 12 kts 46°
2026-04-13 13:50 34.86775 33.61160 20 ft 11 kts 45°
2026-04-13 13:50 34.86831 33.61229 17 ft 12 kts 45°
2026-04-13 13:50 34.86893 33.61306 17 ft 12 kts 52°
2026-04-13 13:51 34.86883 33.61389 18 ft 10 kts 107°
2026-04-13 13:51 34.86907 33.61460 18 ft 9 kts 45°
2026-04-13 13:51 34.86951 33.61516 18 ft 10 kts 46°
2026-04-13 13:51 34.87016 33.61595 19 ft 16 kts 45°
2026-04-13 13:52 34.87108 33.61706 21 ft 21 kts 45°
2026-04-13 13:52 34.87221 33.61844 21 ft 23 kts 45°
2026-04-13 13:52 34.87337 33.61986 20 ft 24 kts 45°
2026-04-13 13:52 34.87460 33.62137 19 ft 26 kts 45°
2026-04-13 13:53 34.87587 33.62293 16 ft 27 kts 45°
2026-04-13 13:53 34.87717 33.62452 18 ft 26 kts 45°
2026-04-13 13:53 34.87846 33.62609 20 ft 26 kts 45°
2026-04-13 13:53 34.87973 33.62763 20 ft 26 kts 44°
2026-04-13 13:54 34.88103 33.62922 20 ft 27 kts 45°
2026-04-13 13:54 34.88238 33.63087 17 ft 28 kts 45°
2026-04-13 13:54 34.88362 33.63237 17 ft 19 kts 44°
2026-04-13 13:54 34.88440 33.63337 18 ft 12 kts 59°
2026-04-13 13:55 34.88421 33.63410 20 ft 9 kts 134°
2026-04-13 13:55 34.88375 33.63468 19 ft 10 kts 134°
2026-04-13 13:55 34.88313 33.63520 17 ft 12 kts 180°
2026-04-13 13:55 34.88243 33.63451 15 ft 14 kts 225°
2026-04-13 13:56 34.88137 33.63322 18 ft 45 kts 225°
2026-04-13 13:56 34.87749 33.62853 23 ft 109 kts 225°
2026-04-13 13:56 34.87088 33.62042 25 ft 158 kts 224°
2026-04-13 13:56 34.86285 33.61081 592 ft 161 kts 221°
2026-04-13 13:57 34.85515 33.60084 1288 ft 162 kts 225°
2026-04-13 13:57 34.84711 33.59030 1689 ft 180 kts 223°
2026-04-13 13:57 34.83806 33.57851 1935 ft 202 kts 225°
2026-04-13 13:57 34.82784 33.56521 2226 ft 227 kts 225°
2026-04-13 13:58 34.81652 33.55050 2652 ft 246 kts 226°
2026-04-13 13:58 34.80468 33.53514 3411 ft 250 kts 226°
2026-04-13 13:58 34.79261 33.51955 4148 ft 257 kts 227°
2026-04-13 13:58 34.78017 33.50353 4837 ft 264 kts 229°
2026-04-13 13:59 34.76735 33.48708 5524 ft 271 kts 229°
2026-04-13 13:59 34.75428 33.47034 6253 ft 275 kts 230°
2026-04-13 13:59 34.74094 33.45330 6941 ft 280 kts 230°
2026-04-13 13:59 34.72744 33.43610 7657 ft 282 kts 230°
2026-04-13 14:00 34.71385 33.41882 8403 ft 284 kts 230°
2026-04-13 14:00 34.70019 33.40142 9149 ft 285 kts 231°
2026-04-13 14:00 34.68836 33.38224 9868 ft 283 kts 246°
2026-04-13 14:00 34.68164 33.36003 10527 ft 280 kts 262°
2026-04-13 14:01 34.68034 33.33659 11146 ft 280 kts 275°
2026-04-13 14:01 34.68137 33.31236 11308 ft 302 kts 275°
2026-04-13 14:01 34.68254 33.28599 11473 ft 321 kts 275°
2026-04-13 14:01 34.68374 33.25851 11951 ft 329 kts 275°
2026-04-13 14:02 34.68488 33.23065 12558 ft 332 kts 275°
2026-04-13 14:02 34.68597 33.20250 13190 ft 335 kts 275°
2026-04-13 14:02 34.68706 33.17413 13786 ft 338 kts 275°
2026-04-13 14:02 34.68820 33.14556 14344 ft 340 kts 275°
2026-04-13 14:03 34.68936 33.11668 14867 ft 343 kts 275°
2026-04-13 14:03 34.69048 33.08763 15431 ft 345 kts 275°
2026-04-13 14:03 34.69160 33.05844 16005 ft 347 kts 275°
2026-04-13 14:03 34.69273 33.02912 16573 ft 348 kts 275°
2026-04-13 14:04 34.69388 32.99969 17117 ft 350 kts 275°
2026-04-13 14:04 34.69505 32.97008 17661 ft 352 kts 275°
2026-04-13 14:04 34.69619 32.94032 18201 ft 354 kts 275°
2026-04-13 14:04 34.69728 32.91041 18695 ft 355 kts 274°
2026-04-13 14:05 34.69837 32.88033 19143 ft 357 kts 274°
2026-04-13 14:05 34.69945 32.85014 19611 ft 358 kts 274°
2026-04-13 14:05 34.70060 32.81982 20067 ft 360 kts 274°
2026-04-13 14:05 34.70173 32.78933 20507 ft 362 kts 274°
2026-04-13 14:06 34.70283 32.75870 20940 ft 364 kts 274°
2026-04-13 14:06 34.70397 32.72742 21372 ft 366 kts 274°
2026-04-13 14:06 34.70509 32.69685 21797 ft 368 kts 274°
2026-04-13 14:06 34.70619 32.66568 22211 ft 370 kts 274°
2026-04-13 14:07 34.70728 32.63438 22608 ft 372 kts 274°
2026-04-13 14:07 34.70840 32.60285 23006 ft 375 kts 274°
2026-04-13 14:07 34.70951 32.57116 23398 ft 377 kts 274°
2026-04-13 14:07 34.71064 32.53926 23777 ft 379 kts 274°
2026-04-13 14:08 34.71164 32.50715 24089 ft 381 kts 271°
2026-04-13 14:08 34.71033 32.47487 24400 ft 384 kts 269°
2026-04-13 14:08 34.70867 32.44240 24718 ft 386 kts 268°
2026-04-13 14:08 34.70690 32.40982 25028 ft 387 kts 268°
2026-04-13 14:09 34.70513 32.37709 25331 ft 389 kts 268°
2026-04-13 14:09 34.70393 32.35487 25511 ft 390 kts 269°
2026-04-13 14:09 34.70219 32.32229 25791 ft 392 kts 269°
2026-04-13 14:09 34.70039 32.28914 26087 ft 394 kts 269°
2026-04-13 14:10 34.69858 32.25587 26382 ft 396 kts 269°
2026-04-13 14:10 34.69675 32.22245 26671 ft 397 kts 269°
2026-04-13 14:10 34.69492 32.18889 26958 ft 399 kts 268°
2026-04-13 14:10 34.69303 32.15522 27239 ft 400 kts 268°
2026-04-13 14:11 34.69113 32.12136 27523 ft 402 kts 268°
2026-04-13 14:11 34.68927 32.08740 27802 ft 404 kts 269°
2026-04-13 14:11 34.68745 32.05335 28080 ft 405 kts 268°
2026-04-13 14:11 34.68555 32.01914 28363 ft 407 kts 268°
2026-04-13 14:12 34.68361 31.98480 28635 ft 408 kts 268°
2026-04-13 14:12 34.68191 31.95037 28896 ft 409 kts 271°
2026-04-13 14:12 34.68395 31.91599 29140 ft 408 kts 281°
2026-04-13 14:12 34.69106 31.88266 29377 ft 409 kts 290°
2026-04-13 14:13 34.70309 31.85137 29601 ft 410 kts 300°
2026-04-13 14:13 34.71779 31.82151 29826 ft 412 kts 300°
2026-04-13 14:13 34.73249 31.79157 30066 ft 414 kts 300°
2026-04-13 14:14 34.76181 31.73142 30608 ft 412 kts 300°
2026-04-13 14:14 34.77638 31.70144 30914 ft 411 kts 300°
2026-04-13 14:14 34.79089 31.67155 31203 ft 410 kts 300°
2026-04-13 14:14 34.80534 31.64173 31493 ft 408 kts 300°
2026-04-13 14:15 34.81973 31.61199 31788 ft 407 kts 300°
2026-04-13 14:15 34.83408 31.58232 32073 ft 406 kts 300°
2026-04-13 14:15 34.84839 31.55275 32361 ft 405 kts 300°
2026-04-13 14:15 34.86266 31.52328 32649 ft 404 kts 300°
2026-04-13 14:16 34.87689 31.49386 32922 ft 403 kts 299°
2026-04-13 14:16 34.89108 31.46450 33207 ft 402 kts 299°
2026-04-13 14:16 34.90523 31.43518 33472 ft 401 kts 299°
2026-04-13 14:16 34.91932 31.40596 33748 ft 400 kts 299°
2026-04-13 14:17 34.93335 31.37679 34012 ft 399 kts 299°
2026-04-13 14:17 34.94737 31.34766 34102 ft 396 kts 299°
2026-04-13 14:17 34.97508 31.29005 34123 ft 392 kts 299°
2026-04-13 14:18 35.00261 31.23266 34134 ft 392 kts 299°
2026-04-13 14:18 35.03011 31.17519 34121 ft 392 kts 299°
2026-04-13 14:19 35.05761 31.11768 34121 ft 392 kts 299°
2026-04-13 14:19 35.08505 31.06015 34125 ft 392 kts 299°
2026-04-13 14:20 35.11252 31.00264 34137 ft 392 kts 299°
2026-04-13 14:20 35.13991 30.94508 34131 ft 392 kts 299°
2026-04-13 14:21 35.16727 30.88744 34126 ft 392 kts 299°
2026-04-13 14:21 35.20081 30.83493 34124 ft 394 kts 311°
2026-04-13 14:22 35.23837 30.78602 34123 ft 394 kts 310°
2026-04-13 14:22 35.27591 30.73701 34122 ft 395 kts 310°
2026-04-13 14:23 35.31342 30.68794 34129 ft 395 kts 310°
2026-04-13 14:23 35.35092 30.63883 34127 ft 395 kts 310°
2026-04-13 14:24 35.38841 30.58959 34125 ft 395 kts 310°
2026-04-13 14:24 35.42590 30.54035 34124 ft 395 kts 310°
2026-04-13 14:25 35.46332 30.49104 34133 ft 395 kts 310°
2026-04-13 14:25 35.50052 30.44201 34150 ft 395 kts 310°
2026-04-13 14:26 35.53795 30.39264 34144 ft 395 kts 310°
2026-04-13 14:26 35.57533 30.34323 34136 ft 395 kts 310°
2026-04-13 14:27 35.61265 30.29372 34139 ft 395 kts 310°
2026-04-13 14:27 35.65003 30.24421 34141 ft 395 kts 310°
2026-04-13 14:28 35.68731 30.19464 34138 ft 395 kts 310°
2026-04-13 14:28 35.72467 30.14506 34135 ft 395 kts 310°
2026-04-13 14:29 35.76201 30.09542 34140 ft 395 kts 310°
2026-04-13 14:29 35.79926 30.04568 34141 ft 395 kts 310°
2026-04-13 14:30 35.83277 29.99266 34162 ft 391 kts 297°
2026-04-13 14:30 35.85239 29.93042 34152 ft 390 kts 288°
2026-04-13 14:31 35.86955 29.86698 34150 ft 390 kts 288°
2026-04-13 14:31 35.88673 29.80354 34138 ft 390 kts 288°
2026-04-13 14:32 35.90391 29.74008 34141 ft 390 kts 288°
2026-04-13 14:32 35.92100 29.67654 34140 ft 390 kts 288°
2026-04-13 14:33 35.93803 29.61301 34140 ft 390 kts 288°
2026-04-13 14:33 35.96041 29.55228 34138 ft 391 kts 303°
2026-04-13 14:34 35.99864 29.50425 34133 ft 396 kts 317°
2026-04-13 14:34 36.04129 29.46119 34128 ft 396 kts 317°
2026-04-13 14:35 36.08391 29.41800 34132 ft 396 kts 317°
2026-04-13 14:35 36.12656 29.37473 34133 ft 396 kts 317°
2026-04-13 14:36 36.16911 29.33133 34138 ft 396 kts 317°
2026-04-13 14:36 36.21151 29.28771 34139 ft 396 kts 316°
2026-04-13 14:37 36.25325 29.24380 34155 ft 396 kts 316°
2026-04-13 14:37 36.29516 29.19951 34152 ft 396 kts 316°
2026-04-13 14:38 36.33723 29.15533 34150 ft 396 kts 316°
2026-04-13 14:38 36.37933 29.11113 34156 ft 396 kts 316°
2026-04-13 14:39 36.42135 29.06685 34150 ft 396 kts 316°
2026-04-13 14:39 36.46328 29.02254 34146 ft 396 kts 316°
2026-04-13 14:40 36.50517 28.97811 34150 ft 396 kts 316°
2026-04-13 14:40 36.54703 28.93372 34166 ft 396 kts 316°
2026-04-13 14:41 36.58893 28.88927 34163 ft 396 kts 316°
2026-04-13 14:41 36.63085 28.84474 34164 ft 396 kts 316°
2026-04-13 14:42 36.67282 28.80021 34166 ft 396 kts 316°
2026-04-13 14:42 36.71471 28.75557 34163 ft 396 kts 316°
2026-04-13 14:43 36.75670 28.71113 34158 ft 396 kts 316°
2026-04-13 14:43 36.79874 28.66672 34161 ft 396 kts 316°
2026-04-13 14:44 36.84067 28.62221 34167 ft 396 kts 316°
2026-04-13 14:44 36.88255 28.57759 34161 ft 396 kts 315°
2026-04-13 14:45 36.92447 28.53295 34138 ft 396 kts 316°
2026-04-13 14:45 36.96632 28.48826 34128 ft 396 kts 315°
2026-04-13 14:46 37.00814 28.44350 34118 ft 395 kts 316°
2026-04-13 14:46 37.04990 28.39869 34113 ft 396 kts 315°
2026-04-13 14:47 37.09175 28.35383 34107 ft 396 kts 315°
2026-04-13 14:47 37.13346 28.30877 34113 ft 396 kts 315°
2026-04-13 14:48 37.17510 28.26350 34117 ft 396 kts 315°
2026-04-13 14:48 37.21689 28.21834 34123 ft 397 kts 315°
2026-04-13 14:49 37.25867 28.17323 34122 ft 396 kts 315°
2026-04-13 14:49 37.30045 28.12808 34127 ft 396 kts 315°
2026-04-13 14:50 37.34215 28.08291 34123 ft 396 kts 315°
2026-04-13 14:50 37.38350 28.03786 34138 ft 396 kts 315°
2026-04-13 14:51 37.42506 27.99231 34145 ft 396 kts 315°
2026-04-13 14:51 37.46660 27.94675 34148 ft 396 kts 315°
2026-04-13 14:52 37.50815 27.90120 34132 ft 396 kts 315°
2026-04-13 14:52 37.54969 27.85569 34117 ft 395 kts 315°
2026-04-13 14:53 37.59110 27.81015 34112 ft 395 kts 315°
2026-04-13 14:53 37.63250 27.76450 34111 ft 395 kts 315°
2026-04-13 14:54 37.67388 27.71883 34113 ft 395 kts 315°
2026-04-13 14:54 37.71529 27.67311 34111 ft 395 kts 315°
2026-04-13 14:55 37.74972 27.63509 34124 ft 395 kts 315°
2026-04-13 14:55 37.79106 27.58931 34120 ft 395 kts 315°
2026-04-13 14:56 37.83235 27.54347 34136 ft 395 kts 315°
2026-04-13 14:56 37.87365 27.49753 34136 ft 395 kts 315°
2026-04-13 14:57 37.91496 27.45167 34132 ft 395 kts 315°
2026-04-13 14:58 37.97739 27.38341 34115 ft 395 kts 315°
2026-04-13 14:58 38.01897 27.33786 34131 ft 395 kts 315°
2026-04-13 14:59 38.06052 27.29210 34125 ft 396 kts 315°
2026-04-13 14:59 38.10201 27.24623 34123 ft 396 kts 315°
2026-04-13 15:00 38.14351 27.20032 34121 ft 395 kts 315°
2026-04-13 15:00 38.18497 27.15436 34133 ft 395 kts 315°
2026-04-13 15:01 38.22647 27.10847 34141 ft 396 kts 315°
2026-04-13 15:01 38.26794 27.06239 34141 ft 396 kts 315°
2026-04-13 15:02 38.30939 27.01632 34152 ft 396 kts 315°
2026-04-13 15:02 38.35090 26.97025 34144 ft 396 kts 315°
2026-04-13 15:03 38.39229 26.92464 34141 ft 396 kts 315°
2026-04-13 15:03 38.43394 26.87871 34138 ft 396 kts 315°
2026-04-13 15:04 38.47561 26.83272 34124 ft 396 kts 315°
2026-04-13 15:04 38.51722 26.78658 34124 ft 396 kts 315°
2026-04-13 15:05 38.55877 26.74037 34124 ft 396 kts 315°
2026-04-13 15:05 38.60032 26.69407 34142 ft 396 kts 315°
2026-04-13 15:06 38.64191 26.64782 34138 ft 396 kts 315°
2026-04-13 15:06 38.68347 26.60149 34134 ft 396 kts 315°
2026-04-13 15:07 38.72498 26.55508 34136 ft 396 kts 314°
2026-04-13 15:07 38.76651 26.50861 34136 ft 397 kts 314°
2026-04-13 15:08 38.80809 26.46197 34140 ft 397 kts 314°
2026-04-13 15:08 38.84768 26.41298 34146 ft 394 kts 308°
2026-04-13 15:09 38.88402 26.36039 34160 ft 394 kts 308°
2026-04-13 15:09 38.92046 26.30781 34155 ft 394 kts 308°
2026-04-13 15:10 38.95690 26.25522 34154 ft 394 kts 308°
2026-04-13 15:10 38.99333 26.20254 34135 ft 395 kts 307°
2026-04-13 15:11 39.02950 26.15006 34133 ft 395 kts 308°
2026-04-13 15:11 39.06594 26.09716 34132 ft 395 kts 308°
2026-04-13 15:12 39.10239 26.04422 34136 ft 395 kts 308°
2026-04-13 15:12 39.13879 25.99117 34138 ft 395 kts 307°
2026-04-13 15:13 39.17512 25.93806 34140 ft 395 kts 307°
2026-04-13 15:13 39.21145 25.88491 34159 ft 395 kts 307°
2026-04-13 15:14 39.24777 25.83171 34150 ft 395 kts 307°
2026-04-13 15:14 39.28410 25.77846 34148 ft 395 kts 307°
2026-04-13 15:15 39.32039 25.72510 34147 ft 395 kts 307°
2026-04-13 15:15 39.35667 25.67168 34150 ft 395 kts 307°
2026-04-13 15:16 39.39288 25.61820 34152 ft 395 kts 307°
2026-04-13 15:16 39.42907 25.56471 34152 ft 396 kts 307°
2026-04-13 15:17 39.46534 25.51108 34149 ft 396 kts 307°
2026-04-13 15:17 39.50157 25.45736 34150 ft 396 kts 307°
2026-04-13 15:18 39.53777 25.40357 34161 ft 396 kts 307°
2026-04-13 15:18 39.57399 25.34966 34162 ft 396 kts 307°
2026-04-13 15:19 39.60993 25.29608 34168 ft 396 kts 306°
2026-04-13 15:19 39.64618 25.24211 34168 ft 396 kts 306°
2026-04-13 15:20 39.68257 25.18769 34170 ft 396 kts 306°
2026-04-13 15:20 39.71836 25.13393 34171 ft 396 kts 306°
2026-04-13 15:21 39.75443 25.07985 34173 ft 396 kts 306°
2026-04-13 15:21 39.79050 25.02570 34169 ft 396 kts 306°
2026-04-13 15:22 39.82648 24.97155 34169 ft 396 kts 306°
2026-04-13 15:22 39.86242 24.91735 34167 ft 396 kts 306°
2026-04-13 15:23 39.89835 24.86295 34162 ft 396 kts 306°
2026-04-13 15:23 39.93425 24.80850 34154 ft 396 kts 306°
2026-04-13 15:24 39.97023 24.75400 34150 ft 397 kts 306°
2026-04-13 15:24 40.00619 24.69946 34150 ft 397 kts 306°
2026-04-13 15:25 40.04210 24.64480 34149 ft 397 kts 306°
2026-04-13 15:25 40.07798 24.59011 34150 ft 396 kts 306°
2026-04-13 15:26 40.11387 24.53545 34152 ft 396 kts 306°
2026-04-13 15:26 40.14964 24.48068 34151 ft 396 kts 306°
2026-04-13 15:27 40.18534 24.42588 34151 ft 396 kts 306°
2026-04-13 15:27 40.22110 24.37100 34154 ft 396 kts 306°
2026-04-13 15:28 40.25687 24.31595 34153 ft 397 kts 306°
2026-04-13 15:28 40.29263 24.26082 34145 ft 397 kts 306°
2026-04-13 15:29 40.32814 24.20603 34151 ft 397 kts 305°
2026-04-13 15:29 40.36385 24.15073 34152 ft 398 kts 305°
2026-04-13 15:30 40.39961 24.09531 34157 ft 398 kts 305°
2026-04-13 15:30 40.43533 24.03981 34155 ft 398 kts 305°
2026-04-13 15:31 40.47107 23.98419 34154 ft 399 kts 305°
2026-04-13 15:31 40.50692 23.92850 34159 ft 399 kts 305°
2026-04-13 15:32 40.54276 23.87271 34159 ft 400 kts 305°
2026-04-13 15:32 40.57853 23.81674 34163 ft 400 kts 305°
2026-04-13 15:33 40.61433 23.76065 34159 ft 400 kts 305°
2026-04-13 15:33 40.65019 23.70442 34161 ft 401 kts 305°
2026-04-13 15:34 40.70399 23.61974 34157 ft 402 kts 305°
2026-04-13 15:34 40.73988 23.56311 34166 ft 402 kts 305°
2026-04-13 15:35 40.77576 23.50646 34179 ft 402 kts 305°
2026-04-13 15:35 40.81162 23.44979 34169 ft 402 kts 305°
2026-04-13 15:36 40.84745 23.39293 34171 ft 403 kts 305°
2026-04-13 15:36 40.88325 23.33599 34163 ft 403 kts 305°
2026-04-13 15:37 40.91916 23.27894 34157 ft 404 kts 305°
2026-04-13 15:37 40.95506 23.22178 34155 ft 404 kts 305°
2026-04-13 15:38 40.99089 23.16444 34154 ft 404 kts 305°
2026-04-13 15:38 41.02675 23.10713 34155 ft 404 kts 305°
2026-04-13 15:39 41.06240 23.04996 34170 ft 405 kts 305°
2026-04-13 15:39 41.09830 22.99226 34163 ft 406 kts 305°
2026-04-13 15:40 41.13466 22.93478 34157 ft 407 kts 306°
2026-04-13 15:40 41.17148 22.87746 34249 ft 411 kts 306°
2026-04-13 15:41 41.19030 22.84808 34408 ft 413 kts 306°
2026-04-13 15:41 41.20863 22.81943 34630 ft 413 kts 306°
2026-04-13 15:41 41.22717 22.79032 34849 ft 413 kts 306°
2026-04-13 15:41 41.24568 22.76114 35047 ft 413 kts 306°
2026-04-13 15:42 41.26446 22.73210 35221 ft 415 kts 307°
2026-04-13 15:42 41.28373 22.70354 35406 ft 416 kts 308°
2026-04-13 15:42 41.30333 22.67518 35604 ft 416 kts 308°
2026-04-13 15:42 41.32299 22.64698 35801 ft 416 kts 308°
2026-04-13 15:43 41.34263 22.61879 35993 ft 416 kts 308°
2026-04-13 15:43 41.36224 22.59045 36137 ft 416 kts 308°
2026-04-13 15:43 41.40120 22.53347 36146 ft 416 kts 308°
2026-04-13 15:44 41.43989 22.47628 36143 ft 416 kts 307°
2026-04-13 15:44 41.47236 22.42832 36130 ft 416 kts 308°
2026-04-13 15:45 41.51124 22.37096 36130 ft 417 kts 308°
2026-04-13 15:45 41.55011 22.31358 36116 ft 417 kts 308°
2026-04-13 15:46 41.58893 22.25602 36118 ft 417 kts 307°
2026-04-13 15:46 41.62746 22.19875 36121 ft 417 kts 307°
2026-04-13 15:47 41.66627 22.14100 36117 ft 418 kts 307°
2026-04-13 15:47 41.70512 22.08312 36109 ft 418 kts 307°
2026-04-13 15:48 41.74404 22.02511 36092 ft 419 kts 307°
2026-04-13 15:48 41.78299 21.96692 36087 ft 419 kts 307°
2026-04-13 15:49 41.82184 21.90861 36079 ft 419 kts 307°
2026-04-13 15:49 41.86064 21.85016 36079 ft 420 kts 307°
2026-04-13 15:50 41.89950 21.79167 36092 ft 420 kts 307°
2026-04-13 15:50 41.93844 21.73309 36093 ft 420 kts 307°
2026-04-13 15:51 41.97729 21.67443 36087 ft 420 kts 307°
2026-04-13 15:51 42.01607 21.61561 36081 ft 420 kts 307°
2026-04-13 15:52 42.05484 21.55674 36079 ft 420 kts 307°
2026-04-13 15:52 42.09362 21.49775 36062 ft 421 kts 307°
2026-04-13 15:53 42.13237 21.43867 36065 ft 421 kts 307°
2026-04-13 15:53 42.17105 21.37951 36064 ft 421 kts 307°
2026-04-13 15:54 42.20908 21.31961 36067 ft 420 kts 306°
2026-04-13 15:54 42.24672 21.25934 36055 ft 420 kts 306°
2026-04-13 15:55 42.28445 21.19919 36046 ft 420 kts 306°
2026-04-13 15:55 42.32224 21.13908 36038 ft 419 kts 306°
2026-04-13 15:56 42.35997 21.07883 36030 ft 420 kts 306°
2026-04-13 15:56 42.39773 21.01839 36018 ft 421 kts 306°
2026-04-13 15:57 42.43546 20.95789 36017 ft 421 kts 306°
2026-04-13 15:57 42.47328 20.89711 36021 ft 422 kts 306°
2026-04-13 15:58 42.51111 20.83622 36022 ft 422 kts 306°
2026-04-13 15:58 42.54893 20.77530 36028 ft 423 kts 306°
2026-04-13 15:59 42.58683 20.71416 35999 ft 424 kts 306°
2026-04-13 15:59 42.62474 20.65278 35996 ft 424 kts 306°
2026-04-13 16:00 42.66266 20.59127 35988 ft 425 kts 305°
2026-04-13 16:00 42.70056 20.52961 35984 ft 425 kts 305°
2026-04-13 16:01 42.73841 20.46783 35993 ft 425 kts 305°
2026-04-13 16:01 42.77631 20.40590 35982 ft 426 kts 305°
2026-04-13 16:02 42.81431 20.34379 35977 ft 427 kts 306°
2026-04-13 16:02 42.85610 20.28593 35963 ft 433 kts 315°
2026-04-13 16:03 42.90182 20.23340 35956 ft 433 kts 315°
2026-04-13 16:03 42.94782 20.18032 35938 ft 433 kts 315°
2026-04-13 16:04 42.99383 20.12715 35946 ft 433 kts 315°
2026-04-13 16:04 43.03986 20.07390 35937 ft 434 kts 315°
2026-04-13 16:05 43.08593 20.02050 35909 ft 434 kts 315°
2026-04-13 16:05 43.13200 19.96690 35909 ft 435 kts 315°
2026-04-13 16:06 43.17808 19.91323 35902 ft 435 kts 315°
2026-04-13 16:06 43.22411 19.85939 35902 ft 435 kts 315°
2026-04-13 16:07 43.27016 19.80543 35913 ft 435 kts 315°
2026-04-13 16:07 43.31618 19.75128 35897 ft 436 kts 315°
2026-04-13 16:08 43.36235 19.69701 35890 ft 437 kts 315°
2026-04-13 16:08 43.40853 19.64271 35892 ft 437 kts 315°
2026-04-13 16:09 43.45478 19.58821 35893 ft 438 kts 315°
2026-04-13 16:09 43.50100 19.53352 35896 ft 438 kts 315°
2026-04-13 16:10 43.54693 19.47901 35893 ft 439 kts 315°
2026-04-13 16:10 43.59357 19.42371 35886 ft 440 kts 316°
2026-04-13 16:11 43.63967 19.36899 35886 ft 440 kts 315°
2026-04-13 16:11 43.68601 19.31378 35904 ft 440 kts 315°
2026-04-13 16:12 43.73235 19.25838 35890 ft 441 kts 315°
2026-04-13 16:12 43.77871 19.20279 35877 ft 441 kts 316°
2026-04-13 16:13 43.82515 19.14708 35876 ft 442 kts 316°
2026-04-13 16:13 43.87169 19.09120 35879 ft 443 kts 316°
2026-04-13 16:14 43.91824 19.03509 35881 ft 444 kts 315°
2026-04-13 16:14 43.96486 18.97877 35877 ft 445 kts 315°
2026-04-13 16:15 44.01160 18.92233 35875 ft 445 kts 316°
2026-04-13 16:15 44.05822 18.86567 35881 ft 445 kts 315°
2026-04-13 16:16 44.10483 18.80885 35892 ft 446 kts 316°
2026-04-13 16:16 44.15159 18.75206 35890 ft 446 kts 316°
2026-04-13 16:17 44.19825 18.69510 35890 ft 446 kts 316°
2026-04-13 16:17 44.24489 18.63799 35892 ft 446 kts 316°
2026-04-13 16:18 44.29145 18.58084 35899 ft 445 kts 316°
2026-04-13 16:18 44.33792 18.52372 35901 ft 445 kts 315°
2026-04-13 16:19 44.38431 18.46658 35902 ft 445 kts 316°
2026-04-13 16:19 44.43068 18.40939 35902 ft 444 kts 315°
2026-04-13 16:20 44.47692 18.35212 35903 ft 444 kts 315°
2026-04-13 16:20 44.52313 18.29473 35916 ft 444 kts 315°
2026-04-13 16:21 44.56936 18.23729 35915 ft 444 kts 315°
2026-04-13 16:21 44.61555 18.17984 35907 ft 444 kts 315°
2026-04-13 16:22 44.66171 18.12233 35911 ft 444 kts 315°
2026-04-13 16:23 44.73084 18.03570 35914 ft 444 kts 315°
2026-04-13 16:23 44.77693 17.97786 35918 ft 444 kts 315°
2026-04-13 16:24 44.82297 17.92004 35919 ft 443 kts 315°
2026-04-13 16:24 44.86897 17.86206 35923 ft 443 kts 315°
2026-04-13 16:25 44.91485 17.80397 35914 ft 443 kts 315°
2026-04-13 16:25 44.96074 17.74583 35921 ft 444 kts 315°
2026-04-13 16:26 45.00671 17.68757 35910 ft 444 kts 315°
2026-04-13 16:26 45.05264 17.62919 35914 ft 444 kts 315°
2026-04-13 16:27 45.09856 17.57062 35915 ft 444 kts 315°
2026-04-13 16:27 45.14439 17.51194 35925 ft 445 kts 315°
2026-04-13 16:28 45.19034 17.45307 35913 ft 446 kts 315°
2026-04-13 16:28 45.23636 17.39404 35916 ft 446 kts 315°
2026-04-13 16:29 45.28205 17.33523 35914 ft 447 kts 315°
2026-04-13 16:29 45.32811 17.27594 35915 ft 447 kts 315°
2026-04-13 16:30 45.37410 17.21654 35919 ft 447 kts 314°
2026-04-13 16:30 45.42011 17.15691 35914 ft 448 kts 314°
2026-04-13 16:31 45.45865 17.10682 35910 ft 448 kts 314°
2026-04-13 16:31 45.50467 17.04689 35908 ft 448 kts 314°
2026-04-13 16:32 45.55066 16.98688 35925 ft 448 kts 314°
2026-04-13 16:32 45.59671 16.92670 35908 ft 449 kts 314°
2026-04-13 16:33 45.64274 16.86626 35906 ft 450 kts 314°
2026-04-13 16:33 45.68881 16.80572 35900 ft 450 kts 314°
2026-04-13 16:34 45.73494 16.74509 35897 ft 450 kts 314°
2026-04-13 16:34 45.78101 16.68449 35914 ft 450 kts 314°
2026-04-13 16:35 45.82703 16.62366 35907 ft 450 kts 314°
2026-04-13 16:35 45.87300 16.56263 35910 ft 450 kts 314°
2026-04-13 16:36 45.91866 16.50191 35905 ft 450 kts 314°
2026-04-13 16:36 45.96489 16.44027 35910 ft 450 kts 314°
2026-04-13 16:37 46.01052 16.37929 35917 ft 451 kts 314°
2026-04-13 16:37 46.05684 16.31733 35915 ft 452 kts 314°
2026-04-13 16:38 46.10277 16.25574 35911 ft 452 kts 314°
2026-04-13 16:38 46.14858 16.19426 35920 ft 452 kts 314°
2026-04-13 16:39 46.19454 16.13232 35942 ft 452 kts 314°
2026-04-13 16:39 46.24047 16.07010 35929 ft 453 kts 314°
2026-04-13 16:40 46.28650 16.00775 35925 ft 453 kts 314°
2026-04-13 16:40 46.33217 15.94497 35926 ft 453 kts 313°
2026-04-13 16:41 46.37647 15.88018 35936 ft 453 kts 311°
2026-04-13 16:41 46.42032 15.81471 35960 ft 453 kts 311°
2026-04-13 16:42 46.46439 15.74951 35962 ft 453 kts 312°
2026-04-13 16:42 46.50866 15.68448 35963 ft 453 kts 312°
2026-04-13 16:43 46.55288 15.61945 35962 ft 452 kts 312°
2026-04-13 16:43 46.59704 15.55425 35964 ft 452 kts 312°
2026-04-13 16:44 46.64103 15.48889 35967 ft 452 kts 312°
2026-04-13 16:44 46.68499 15.42334 35960 ft 453 kts 312°
2026-04-13 16:45 46.72898 15.35771 35961 ft 453 kts 312°
2026-04-13 16:45 46.77297 15.29195 35959 ft 453 kts 312°
2026-04-13 16:46 46.81700 15.22615 35979 ft 453 kts 312°
2026-04-13 16:46 46.86092 15.16020 35970 ft 453 kts 312°
2026-04-13 16:47 46.90486 15.09406 35968 ft 453 kts 312°
2026-04-13 16:47 46.94872 15.02786 35960 ft 453 kts 311°
2026-04-13 16:48 46.99261 14.96149 35963 ft 453 kts 311°
2026-04-13 16:48 47.03644 14.89502 35963 ft 454 kts 312°
2026-04-13 16:49 47.08023 14.82833 35951 ft 454 kts 311°
2026-04-13 16:49 47.12399 14.76153 35937 ft 454 kts 311°
2026-04-13 16:50 47.16779 14.69458 35940 ft 454 kts 311°
2026-04-13 16:50 47.21158 14.62750 35938 ft 455 kts 311°
2026-04-13 16:51 47.25535 14.56024 35945 ft 455 kts 311°
2026-04-13 16:51 47.29885 14.49326 35933 ft 456 kts 311°
2026-04-13 16:52 47.34260 14.42565 35921 ft 456 kts 311°
2026-04-13 16:52 47.38631 14.35782 35909 ft 456 kts 311°
2026-04-13 16:53 47.43029 14.28954 35897 ft 456 kts 311°
2026-04-13 16:53 47.47378 14.22203 35898 ft 456 kts 311°
2026-04-13 16:54 47.51780 14.15352 35876 ft 457 kts 311°
2026-04-13 16:54 47.56116 14.08558 35878 ft 457 kts 311°
2026-04-13 16:55 47.60472 14.01715 35868 ft 456 kts 311°
2026-04-13 16:55 47.64821 13.94883 35883 ft 455 kts 311°
2026-04-13 16:56 47.69167 13.88039 35860 ft 456 kts 311°
2026-04-13 16:56 47.73508 13.81178 35843 ft 456 kts 311°
2026-04-13 16:57 47.77845 13.74294 35834 ft 456 kts 311°
2026-04-13 16:57 47.82183 13.67399 35838 ft 457 kts 311°
2026-04-13 16:58 47.86523 13.60497 35832 ft 456 kts 310°
2026-04-13 16:58 47.90876 13.53528 35829 ft 456 kts 310°
2026-04-13 16:59 47.95198 13.46590 35829 ft 457 kts 310°
2026-04-13 16:59 47.99497 13.39698 35829 ft 457 kts 310°
2026-04-13 17:00 48.03821 13.32745 35828 ft 457 kts 310°
2026-04-13 17:00 48.08136 13.25773 35842 ft 457 kts 310°
2026-04-13 17:01 48.12454 13.18782 35837 ft 457 kts 310°
2026-04-13 17:01 48.16769 13.11783 35832 ft 457 kts 310°
2026-04-13 17:02 48.21078 13.04767 35839 ft 458 kts 310°
2026-04-13 17:02 48.25375 12.97708 35840 ft 458 kts 309°
2026-04-13 17:03 48.29600 12.90553 35865 ft 458 kts 309°
2026-04-13 17:03 48.33806 12.83353 35857 ft 458 kts 309°
2026-04-13 17:04 48.38022 12.76156 35846 ft 459 kts 309°
2026-04-13 17:04 48.42241 12.68960 35848 ft 458 kts 309°
2026-04-13 17:05 48.46459 12.61756 35850 ft 458 kts 309°
2026-04-13 17:05 48.50664 12.54543 35851 ft 458 kts 309°
2026-04-13 17:06 48.54862 12.47309 35857 ft 458 kts 309°
2026-04-13 17:06 48.59063 12.40064 35858 ft 458 kts 308°
2026-04-13 17:07 48.63256 12.32808 35862 ft 458 kts 308°
2026-04-13 17:07 48.67447 12.25544 35885 ft 458 kts 308°
2026-04-13 17:08 48.71618 12.18255 35885 ft 457 kts 306°
2026-04-13 17:08 48.74780 12.10058 35882 ft 448 kts 287°
2026-04-13 17:09 48.76215 12.00978 35873 ft 442 kts 275°
2026-04-13 17:09 48.77200 11.91781 35869 ft 442 kts 275°
2026-04-13 17:10 48.78189 11.82577 35876 ft 443 kts 275°
2026-04-13 17:10 48.79173 11.73365 35862 ft 443 kts 275°
2026-04-13 17:11 48.80148 11.64135 35858 ft 443 kts 275°
2026-04-13 17:11 48.81110 11.54897 35856 ft 443 kts 275°
2026-04-13 17:12 48.82060 11.45649 35856 ft 444 kts 275°
2026-04-13 17:12 48.83001 11.36396 35876 ft 444 kts 275°
2026-04-13 17:13 48.84075 11.27236 35860 ft 434 kts 283°
2026-04-13 17:13 48.85181 11.23040 35861 ft 425 kts 295°
2026-04-13 17:13 48.86758 11.19265 35857 ft 424 kts 306°
2026-04-13 17:14 48.90216 11.13973 35863 ft 426 kts 315°
2026-04-13 17:14 48.94579 11.07905 35751 ft 425 kts 315°
2026-04-13 17:14 48.96753 11.04866 35586 ft 424 kts 315°
2026-04-13 17:15 48.98917 11.01834 35291 ft 422 kts 315°
2026-04-13 17:15 49.01067 10.98814 34862 ft 419 kts 315°
2026-04-13 17:15 49.03200 10.95816 34509 ft 415 kts 315°
2026-04-13 17:15 49.05311 10.92841 34184 ft 413 kts 314°
2026-04-13 17:16 49.07413 10.89877 34034 ft 411 kts 315°
2026-04-13 17:16 49.11619 10.83945 34031 ft 412 kts 315°
2026-04-13 17:17 49.15819 10.78009 34052 ft 412 kts 314°
2026-04-13 17:17 49.20011 10.72034 34052 ft 412 kts 313°
2026-04-13 17:17 49.22077 10.68949 33574 ft 420 kts 312°
2026-04-13 17:18 49.24153 10.65704 32413 ft 433 kts 311°
2026-04-13 17:18 49.26254 10.62324 31428 ft 442 kts 311°
2026-04-13 17:18 49.28367 10.58901 30775 ft 442 kts 311°
2026-04-13 17:18 49.30484 10.55493 30228 ft 440 kts 311°
2026-04-13 17:19 49.32590 10.52126 29644 ft 435 kts 311°
2026-04-13 17:19 49.34673 10.48822 28683 ft 429 kts 311°
2026-04-13 17:19 49.36621 10.45420 27734 ft 420 kts 303°
2026-04-13 17:19 49.38301 10.41791 26817 ft 414 kts 302°
2026-04-13 17:20 49.39949 10.38200 25940 ft 409 kts 302°
2026-04-13 17:20 49.41573 10.34644 25089 ft 404 kts 302°
2026-04-13 17:20 49.43176 10.31127 24289 ft 400 kts 301°
2026-04-13 17:20 49.44758 10.27655 23679 ft 390 kts 301°
2026-04-13 17:21 49.46280 10.24316 23443 ft 376 kts 301°
2026-04-13 17:21 49.47764 10.21048 23168 ft 371 kts 301°
2026-04-13 17:21 49.49233 10.17803 22893 ft 368 kts 301°
2026-04-13 17:21 49.50689 10.14581 22620 ft 366 kts 301°
2026-04-13 17:22 49.52137 10.11373 22351 ft 364 kts 301°
2026-04-13 17:22 49.53562 10.08216 22084 ft 362 kts 301°
2026-04-13 17:22 49.55010 10.05004 21817 ft 359 kts 301°
2026-04-13 17:22 49.56430 10.01853 21553 ft 357 kts 301°
2026-04-13 17:23 49.57843 9.98720 21292 ft 355 kts 301°
2026-04-13 17:23 49.59251 9.95590 21036 ft 354 kts 301°
2026-04-13 17:23 49.60647 9.92478 20809 ft 353 kts 301°
2026-04-13 17:23 49.62037 9.89374 20550 ft 350 kts 301°
2026-04-13 17:24 49.63398 9.86334 20298 ft 349 kts 301°
2026-04-13 17:24 49.64775 9.83261 20052 ft 347 kts 301°
2026-04-13 17:24 49.66144 9.80203 19805 ft 348 kts 301°
2026-04-13 17:24 49.67569 9.76992 19557 ft 377 kts 301°
2026-04-13 17:25 49.69094 9.73545 19293 ft 400 kts 301°
2026-04-13 17:25 49.70682 9.69967 18853 ft 405 kts 301°
2026-04-13 17:25 49.72276 9.66389 18388 ft 404 kts 301°
2026-04-13 17:25 49.73868 9.62829 17887 ft 401 kts 302°
2026-04-13 17:26 49.75451 9.59289 17384 ft 398 kts 302°
2026-04-13 17:26 49.77031 9.55786 16861 ft 396 kts 302°
2026-04-13 17:26 49.78592 9.52298 16356 ft 392 kts 302°
2026-04-13 17:26 49.80123 9.48828 15845 ft 389 kts 302°
2026-04-13 17:27 49.83141 9.41930 15079 ft 385 kts 302°
2026-04-13 17:27 49.84636 9.38502 14783 ft 384 kts 302°
2026-04-13 17:27 49.86045 9.35007 14459 ft 380 kts 294°
2026-04-13 17:28 49.86941 9.31188 14147 ft 377 kts 284°
2026-04-13 17:28 49.87682 9.27297 13842 ft 376 kts 284°
2026-04-13 17:28 49.88420 9.23413 13507 ft 375 kts 284°
2026-04-13 17:28 49.89155 9.19549 13157 ft 373 kts 284°
2026-04-13 17:29 49.89889 9.15695 12815 ft 371 kts 284°
2026-04-13 17:29 49.90639 9.11876 12477 ft 370 kts 288°
2026-04-13 17:29 49.91928 9.08423 12154 ft 373 kts 309°
2026-04-13 17:29 49.93918 9.05848 11817 ft 375 kts 329°
2026-04-13 17:30 49.96295 9.04173 11443 ft 376 kts 336°
2026-04-13 17:30 49.98704 9.02630 10943 ft 373 kts 336°
2026-04-13 17:30 50.01100 9.01091 10341 ft 373 kts 336°
2026-04-13 17:30 50.03499 8.99544 9635 ft 374 kts 336°
2026-04-13 17:31 50.05911 8.97984 8842 ft 374 kts 336°
2026-04-13 17:31 50.08267 8.96460 8063 ft 360 kts 336°
2026-04-13 17:31 50.10452 8.94831 7318 ft 345 kts 323°
2026-04-13 17:31 50.12016 8.92147 6549 ft 331 kts 296°
2026-04-13 17:32 50.12566 8.88754 5651 ft 321 kts 267°
2026-04-13 17:32 50.11995 8.85477 4763 ft 313 kts 237°
2026-04-13 17:32 50.10562 8.83078 4246 ft 295 kts 220°
2026-04-13 17:32 50.09242 8.80804 4000 ft 271 kts 241°
2026-04-13 17:33 50.08563 8.78222 3702 ft 246 kts 252°
2026-04-13 17:33 50.08050 8.75794 3255 ft 229 kts 251°
2026-04-13 17:33 50.07524 8.73489 2622 ft 224 kts 251°
2026-04-13 17:33 50.06996 8.71256 2168 ft 214 kts 251°
2026-04-13 17:34 50.06031 8.67190 1605 ft 189 kts 251°
2026-04-13 17:34 50.05582 8.65295 1328 ft 183 kts 251°
2026-04-13 17:34 50.05159 8.63517 1061 ft 169 kts 251°
2026-04-13 17:35 50.04765 8.61858 834 ft 158 kts 251°
2026-04-13 17:35 50.04390 8.60293 628 ft 151 kts 251°
2026-04-13 17:35 50.04035 8.58780 434 ft 147 kts 252°
2026-04-13 17:35 50.03694 8.57330 356 ft 127 kts 250°
2026-04-13 17:36 50.03443 8.56295 354 ft 78 kts 249°
2026-04-13 17:36 50.03324 8.55793 347 ft 33 kts 256°
2026-04-13 17:36 50.03315 8.55501 343 ft 14 kts 276°
2026-04-13 17:36 50.03331 8.55347 346 ft 15 kts 279°
2026-04-13 17:37 50.03361 8.55183 347 ft 16 kts 317°
2026-04-13 17:37 50.03441 8.55252 350 ft 16 kts 69°
2026-04-13 17:37 50.03477 8.55404 346 ft 14 kts 70°
2026-04-13 17:37 50.03507 8.55534 355 ft 12 kts 70°
2026-04-13 17:38 50.03533 8.55645 351 ft 10 kts 69°
2026-04-13 17:38 50.03564 8.55774 355 ft 16 kts 70°
2026-04-13 17:38 50.03602 8.55933 354 ft 17 kts 70°
2026-04-13 17:38 50.03640 8.56095 357 ft 15 kts 70°
2026-04-13 17:39 50.03681 8.56265 360 ft 19 kts 70°
2026-04-13 17:39 50.03731 8.56472 359 ft 22 kts 69°
2026-04-13 17:39 50.03785 8.56700 358 ft 23 kts 70°
2026-04-13 17:39 50.03842 8.56939 359 ft 24 kts 69°
2026-04-13 17:40 50.03900 8.57179 364 ft 23 kts 70°
2026-04-13 17:40 50.03955 8.57409 369 ft 22 kts 69°
2026-04-13 17:40 50.04009 8.57638 369 ft 23 kts 70°
2026-04-13 17:40 50.04057 8.57837 370 ft 17 kts 69°
2026-04-13 17:41 50.04099 8.58010 370 ft 17 kts 69°
2026-04-13 17:41 50.04139 8.58181 368 ft 17 kts 70°
2026-04-13 17:41 50.04181 8.58350 370 ft 17 kts 69°
2026-04-13 17:41 50.04220 8.58517 370 ft 16 kts 69°
2026-04-13 17:42 50.04260 8.58682 372 ft 16 kts 69°
2026-04-13 17:42 50.04295 8.58827 373 ft 12 kts 70°
2026-04-13 17:42 50.04324 8.58950 375 ft 12 kts 69°
2026-04-13 17:42 50.04355 8.59078 377 ft 14 kts 70°
2026-04-13 17:43 50.04388 8.59216 376 ft 13 kts 69°
2026-04-13 17:43 50.04419 8.59343 376 ft 11 kts 69°
2026-04-13 17:43 50.04426 8.59375 376 ft 0 kts 69°
2026-04-13 17:43 50.04433 8.59403 376 ft 8 kts 69°
2026-04-13 17:44 50.04468 8.59466 375 ft 8 kts 23°
2026-04-13 17:44 50.04537 8.59470 374 ft 12 kts 358°
2026-04-13 17:44 50.04562 8.59468 373 ft 0 kts 358°
2026-04-13 17:45 50.04563 8.59468 373 ft 0 kts 358°
2026-04-13 17:46 50.04588 8.59467 373 ft 9 kts 358°
2026-04-13 17:46 50.04662 8.59456 372 ft 12 kts 348°
2026-04-13 17:46 50.04744 8.59418 372 ft 13 kts 340°
2026-04-13 17:46 50.04836 8.59363 370 ft 15 kts 335°
2026-04-13 17:47 50.04936 8.59333 369 ft 13 kts 342°
2026-04-13 17:47 50.05035 8.59272 364 ft 17 kts 329°
2026-04-13 17:47 50.05032 8.59105 361 ft 16 kts 248°
2026-04-13 17:47 50.05016 8.59038 360 ft 1 kts 250°
2026-04-13 17:48 50.05011 8.59033 363 ft 2 kts 212°
2026-04-13 17:48 50.05002 8.59044 360 ft 1 kts 142°
2026-04-13 17:48 50.04986 8.59060 361 ft 2 kts 156°
2026-04-13 17:48 50.04982 8.59063 361 ft 2 kts 156°
2026-04-13 17:49 50.04975 8.59066 362 ft 2 kts 160°
2026-04-13 17:49 50.04961 8.59075 366 ft 1 kts 159°
2026-04-13 17:49 50.04957 8.59077 366 ft 0 kts 159°